Regional Weather Roundup
Issued by NWS

Home | Current Version | Previous Version | Graphics & Text | Print | Product List | Glossary On
Versions: 1 2 3 4 5 6 7 8 9 10 11 12 13 14 15 16 17 18 19 20 21 22 23 24 25 26 27 28
000
ASUS45 KCYS 202110
RWRWY

WYOMING REGIONAL WEATHER ROUNDUP
NATIONAL WEATHER SERVICE CHEYENNE WY
200 PM MST MON FEB 20 2017

NOTE:  "FAIR" INDICATES FEW OR NO CLOUDS BELOW 12,000 FEET
WITH NO SIGNIFICANT WEATHER AND/OR OBSTRUCTIONS TO VISIBILITY.

WYZ001-202200-
YELLOWSTONE NATIONAL PARK

CITY           SKY/WX    TMP DP  RH WIND       PRES   REMARKS
LK YELLOWSTONE   N/A     31  31 100 VRB5      29.86F WCI  26
W YELLOWSTONE  NOT AVBL

$$
WYZ002>013-054>058-071-098>099-202200-
NORTHERN WYOMING

CITY           SKY/WX    TMP DP  RH WIND       PRES   REMARKS
JACKSON        CLOUDY    34  32  93 S17       29.94S WCI  23
CODY           FAIR      51  28  41 SW16G24   29.77F
GREYBULL       FAIR      50  28  42 E8        29.79F
WORLAND        FAIR      50  31  48 S12       29.78F
SHERIDAN       FAIR      55  27  34 SE14      29.71F
BUFFALO        FAIR      60  18  19 S9G18     29.75F
GILLETTE       FAIR      57  23  26 SW23G29   29.78F
HULETT         FAIR      55  19  24 SW20G28   29.81F
NEWCASTLE      FAIR      55  14  19 W9G17     29.87S

$$
WYZ014>020-022>026-101>103-202200-
CENTRAL WYOMING

CITY           SKY/WX    TMP DP  RH WIND       PRES   REMARKS
BIG PINEY      FAIR      29  25  85 S6        30.01F WCI  23
PINEDALE       CLOUDY    34  28  80 SE16      30.02F WCI  23
DUBOIS         CLOUDY    37  27  65 W23G29    29.87F WCI  26
LANDER         FAIR      54  24  31 W8G25     29.85F
RIVERTON       FAIR      48  26  42 SW16G25   29.86F
CASPER         FAIR      52  27  38 SW36G51   29.90F
DOUGLAS        FAIR      56  24  29 W28G40    29.89F

$$
WYZ021-027>030-104>119-202200-
SOUTHERN WYOMING

CITY           SKY/WX    TMP DP  RH WIND       PRES   REMARKS
EVANSTON       FAIR      40  27  59 SW18      30.01F WCI  31
KEMMERER         N/A     39  28  65 SW14G20   30.02F WCI  31
FORT BRIDGER   CLOUDY    44  30  58 E10       30.02F
ROCK SPRINGS   FAIR      45  28  51 S7        30.02F
DIXON            N/A     44  32  64 SW16G24   30.15F
RAWLINS        FAIR      43  29  57 SW39G52   29.99F
SARATOGA       FAIR      46  25  42 SW9G21    30.07S
LARAMIE        FAIR      47  19  33 SW26G35   30.01F
CHEYENNE       FAIR      54  16  22 W24G30    30.00R
TORRINGTON     FAIR      61  20  20 W22G29    29.91F
PINE BLUFFS    FAIR      59  14  17 W22G38    29.96F

$$




USA.gov is the U.S. government's official web portal to all federal, state and local government web resources and services.